Location: Gu�tanj
(46.5431°N, 14.9692°E)
Time: 15:37:17
(UTC+00:00)

Tiangong - Visible Passes

Search period start: 20 September 2021 00:00
Search period end: 30 September 2021 00:00
Orbit: 380 x 386 km, 41.5° (Epoch: 18 September)

Date Brightness Start Highest point End Pass type
(mag) Time Alt. Az. Time Alt. Az. Time Alt. Az.
26 Sep 3.8 03:58:20 10° S 03:59:54 13° SSE 04:01:27 10° SE visible
28 Sep 3.3 03:33:10 13° SSW 03:34:40 18° SSE 03:36:54 10° ESE visible
29 Sep 4.1 02:35:12 11° SE 02:35:12 11° SE 02:35:22 10° SE visible
29 Sep 2.5 04:07:20 10° SW 04:10:05 28° S 04:12:51 10° ESE visible
